Погода в Рогозцах

Россия / Курская область     51°35′27″N   37°29′32″E
темп.,
°C
ветер,
м/с
пор.,
м/с
влажн.,
%
обл.,
%
осадки,
мм/ч
давл.,
гПа
погр.,
м
25 февраля, чт
чт2500:00−10ююз4896100 0.4 1034261
03:00−9ююз4995100 0.8 1032285
06:00−7юз4895100 0.1 1029268
09:00−3юз61095100 0.3 1027356
12:00+1зюз51198100 0.0 1025396
15:00+1зюз614100100 0.1 1022383
18:00+2з613100100 0.4 1021343
21:00+2з51299100 0.5 1022309
26 февраля, пт
пт2600:00+2з51199100 0.3 1021280
03:00+2зсз51299100 0.4 1022314
06:00+2з51099100 0.0 1020279
09:00+2з61199100 0.0 1020326
12:00+2з713100100 0.0 1018358
15:00+2з815100100 0.0 1016495
18:00+2з71498100 0.1 1014433
21:00+2з61396100 0.2 1014365
27 февраля, сб
сб2700:00+1з5129598 0.0 1013436
03:00+1з5109599 0.0 1012339
06:00+1з61296100 0.0 1010462
09:00+1зсз61197100 0.1 1010518
12:00+1з61199100 0.1 1009589
15:00+1з61199100 0.3 1010555
18:00+1зсз51097100 0.1 1010438
21:000зсз5997100 0.3 1011433
28 февраля, вс
вс2800:000сз479799 0.1 1011339
03:00−1ссз489399 0.3 1012441
06:00−2с499597 0.0 1014369
09:00−1с498899 0.1 1015775
12:00−1с698694 0.1 1017675
15:00−1с588596 0.1 1019756
18:00−1с4886100 0.1 1020708
21:00−2ссз4109499 0.4 1023524
1 марта, пн
пн100:00−3с499477 0.1 1024469
03:00−4ссз389572 0.1 1025305
06:00−4с369589 0.1 1027316
09:00−4с359182 0.1 1029283
12:00−2ссз358158 0.1 1030749
15:00−2ссз457577 0.1 1031868
18:00−4зсз238729 0.0 103162
21:00−5зсз369216 0.0 1031167